AUX1622 KDEN-KAUS

Flight info

Callsign AUX1622
Flight time N/A
Altitude 37000
Route SLEEK2 SLEEK PNH J17 ABI DILLO LAIKS4
Aircraft B738/M-SDE2E3FGHIRWXY/LB1

Departure

Time 2026-04-30 22:00
Airport Denver International Airport (KDEN)

Arrival

Time N/A
Airport Austin Bergstrom International Airport (KAUS)
Time Latitude Longitude Altitude Speed Heading
2026-04-30 21:49 39.86132 -104.67167 5365 ft 2 kts 91°
2026-04-30 21:49 39.86132 -104.67154 5365 ft 1 kts 91°
2026-04-30 21:50 39.86131 -104.67141 5365 ft 1 kts 91°
2026-04-30 21:50 39.86131 -104.67129 5364 ft 1 kts 91°
2026-04-30 21:50 39.86131 -104.67118 5365 ft 2 kts 91°
2026-04-30 21:50 39.86131 -104.67074 5365 ft 6 kts 89°
2026-04-30 21:51 39.86131 -104.66994 5365 ft 9 kts 90°
2026-04-30 21:51 39.86131 -104.66912 5365 ft 9 kts 90°
2026-04-30 21:51 39.86131 -104.66833 5365 ft 9 kts 90°
2026-04-30 21:51 39.86129 -104.66755 5365 ft 8 kts 92°
2026-04-30 21:52 39.86128 -104.66684 5365 ft 6 kts 90°
2026-04-30 21:52 39.86128 -104.66652 5365 ft 2 kts 90°
2026-04-30 21:52 39.86128 -104.66627 5365 ft 0 kts 91°
2026-04-30 21:53 39.86127 -104.66586 5365 ft 0 kts 92°
2026-04-30 21:53 39.86124 -104.66560 5365 ft 6 kts 102°
2026-04-30 21:53 39.86114 -104.66490 5365 ft 11 kts 97°
2026-04-30 21:54 39.86109 -104.66361 5363 ft 15 kts 90°
2026-04-30 21:54 39.86137 -104.66251 5365 ft 13 kts 34°
2026-04-30 21:54 39.86224 -104.66227 5365 ft 13 kts
2026-04-30 21:54 39.86311 -104.66224 5364 ft 10 kts
2026-04-30 21:55 39.86382 -104.66221 5364 ft 10 kts
2026-04-30 21:55 39.86450 -104.66219 5363 ft 9 kts
2026-04-30 21:55 39.86464 -104.66219 5364 ft 9 kts 360°
2026-04-30 21:55 39.86480 -104.66219 5364 ft 9 kts 360°
2026-04-30 21:56 39.86487 -104.66219 5365 ft 9 kts 360°
2026-04-30 21:56 39.86489 -104.66219 5365 ft 9 kts 360°
2026-04-30 21:56 39.86550 -104.66221 5364 ft 8 kts 359°
2026-04-30 21:56 39.86607 -104.66220 5364 ft 8 kts
2026-04-30 21:57 39.86679 -104.66219 5365 ft 13 kts 360°
2026-04-30 21:57 39.86781 -104.66220 5363 ft 16 kts 360°
2026-04-30 21:57 39.86872 -104.66215 5363 ft 13 kts
2026-04-30 21:57 39.86974 -104.66216 5364 ft 16 kts 359°
2026-04-30 21:58 39.87095 -104.66217 5364 ft 19 kts
2026-04-30 21:58 39.87233 -104.66214 5364 ft 21 kts
2026-04-30 21:58 39.87367 -104.66213 5364 ft 16 kts
2026-04-30 21:58 39.87474 -104.66211 5364 ft 15 kts
2026-04-30 21:59 39.87579 -104.66208 5363 ft 15 kts
2026-04-30 21:59 39.87662 -104.66206 5363 ft 10 kts
2026-04-30 21:59 39.87730 -104.66205 5364 ft 8 kts
2026-04-30 22:00 39.87759 -104.65831 5364 ft 71 kts 90°
2026-04-30 22:00 39.87712 -104.63488 5518 ft 170 kts 92°
2026-04-30 22:00 39.87667 -104.61903 6118 ft 184 kts 91°
2026-04-30 22:01 39.87584 -104.60172 6752 ft 196 kts 96°
2026-04-30 22:01 39.87190 -104.58507 7351 ft 201 kts 114°
2026-04-30 22:01 39.86545 -104.56770 7542 ft 226 kts 114°
2026-04-30 22:01 39.85847 -104.54808 7783 ft 250 kts 112°
2026-04-30 22:02 39.85127 -104.52678 8303 ft 262 kts 111°
2026-04-30 22:02 39.84417 -104.50479 9156 ft 264 kts 110°
2026-04-30 22:02 39.83725 -104.48256 9762 ft 267 kts 110°
2026-04-30 22:02 39.83037 -104.46004 10020 ft 268 kts 110°
2026-04-30 22:03 39.82351 -104.43745 10012 ft 267 kts 110°
2026-04-30 22:03 39.81657 -104.41493 10022 ft 270 kts 114°
2026-04-30 22:03 39.80489 -104.39587 10034 ft 274 kts 141°
2026-04-30 22:03 39.78758 -104.38438 10162 ft 291 kts 159°
2026-04-30 22:04 39.76734 -104.37643 10367 ft 317 kts 162°
2026-04-30 22:04 39.74531 -104.36851 10598 ft 339 kts 162°
2026-04-30 22:04 39.69770 -104.36395 11897 ft 353 kts 196°
2026-04-30 22:05 39.67468 -104.37508 12721 ft 354 kts 202°
2026-04-30 22:05 39.65187 -104.38748 13366 ft 358 kts 203°
2026-04-30 22:05 39.62910 -104.39996 14014 ft 361 kts 204°
2026-04-30 22:05 39.60584 -104.41250 14620 ft 363 kts 204°
2026-04-30 22:06 39.58235 -104.42493 15199 ft 367 kts 204°
2026-04-30 22:06 39.53435 -104.44899 16329 ft 375 kts 195°
2026-04-30 22:06 39.50822 -104.45131 16878 ft 382 kts 175°
2026-04-30 22:07 39.48185 -104.44533 17485 ft 386 kts 171°
2026-04-30 22:07 39.45546 -104.43824 18012 ft 390 kts 171°
2026-04-30 22:07 39.42874 -104.43130 18535 ft 393 kts 171°
2026-04-30 22:07 39.40175 -104.42462 19031 ft 395 kts 172°
2026-04-30 22:08 39.37476 -104.41809 19553 ft 396 kts 172°
2026-04-30 22:08 39.34754 -104.41155 20039 ft 399 kts 172°
2026-04-30 22:08 39.32018 -104.40498 20519 ft 401 kts 173°
2026-04-30 22:08 39.29271 -104.39838 20993 ft 403 kts 173°
2026-04-30 22:09 39.26505 -104.39174 21444 ft 406 kts 173°
2026-04-30 22:09 39.23721 -104.38504 21886 ft 408 kts 173°
2026-04-30 22:09 39.20913 -104.37828 22329 ft 411 kts 173°
2026-04-30 22:09 39.18095 -104.37151 22763 ft 413 kts 173°
2026-04-30 22:10 39.15263 -104.36472 23187 ft 416 kts 173°
2026-04-30 22:10 39.12461 -104.35744 23600 ft 419 kts 171°
2026-04-30 22:10 39.09608 -104.34866 23965 ft 422 kts 170°
2026-04-30 22:10 39.06753 -104.33930 24291 ft 425 kts 170°
2026-04-30 22:11 39.00993 -104.32019 24944 ft 429 kts 171°
2026-04-30 22:11 38.98092 -104.31072 25262 ft 432 kts 171°
2026-04-30 22:11 38.95171 -104.30129 25568 ft 434 kts 172°
2026-04-30 22:12 38.92232 -104.29188 25887 ft 436 kts 172°
2026-04-30 22:12 38.89282 -104.28247 26188 ft 438 kts 172°
2026-04-30 22:12 38.86316 -104.27303 26488 ft 440 kts 173°
2026-04-30 22:12 38.83328 -104.26353 26767 ft 442 kts 173°
2026-04-30 22:13 38.80336 -104.25403 27040 ft 444 kts 173°
2026-04-30 22:13 38.77325 -104.24447 27324 ft 446 kts 174°
2026-04-30 22:13 38.74307 -104.23489 27610 ft 447 kts 174°
2026-04-30 22:13 38.71274 -104.22527 27877 ft 449 kts 174°
2026-04-30 22:14 38.68244 -104.21567 28135 ft 451 kts 175°
2026-04-30 22:14 38.65188 -104.20599 28398 ft 452 kts 175°
2026-04-30 22:14 38.62139 -104.19634 28663 ft 454 kts 175°
2026-04-30 22:14 38.59060 -104.18660 28909 ft 455 kts 175°
2026-04-30 22:15 38.55979 -104.17687 29163 ft 456 kts 176°
2026-04-30 22:15 38.52928 -104.16724 29400 ft 458 kts 175°
2026-04-30 22:15 38.49887 -104.15269 29586 ft 482 kts 159°
2026-04-30 22:15 38.47130 -104.12695 29839 ft 497 kts 149°
2026-04-30 22:16 38.44493 -104.09826 30060 ft 500 kts 148°
2026-04-30 22:16 38.41869 -104.06896 30224 ft 503 kts 148°
2026-04-30 22:17 38.33899 -103.98107 30734 ft 506 kts 149°
2026-04-30 22:17 38.31213 -103.95209 30948 ft 505 kts 150°
2026-04-30 22:17 38.25828 -103.89442 31348 ft 507 kts 150°
2026-04-30 22:18 38.23123 -103.86553 31544 ft 508 kts 150°
2026-04-30 22:18 38.17714 -103.80773 31959 ft 509 kts 150°
2026-04-30 22:19 38.12290 -103.74984 32331 ft 510 kts 150°
2026-04-30 22:19 38.09610 -103.72126 32545 ft 511 kts 150°
2026-04-30 22:19 38.04044 -103.66618 32924 ft 499 kts 159°
2026-04-30 22:20 38.01086 -103.64366 33120 ft 494 kts 162°
2026-04-30 22:20 37.95083 -103.60165 33582 ft 492 kts 164°
2026-04-30 22:20 37.92082 -103.58082 33762 ft 493 kts 163°
2026-04-30 22:21 37.89075 -103.55965 33955 ft 495 kts 163°
2026-04-30 22:21 37.86074 -103.53821 34163 ft 495 kts 163°
2026-04-30 22:21 37.83085 -103.51662 34366 ft 495 kts 163°
2026-04-30 22:21 37.80092 -103.49485 34533 ft 496 kts 163°
2026-04-30 22:22 37.77105 -103.47309 34690 ft 496 kts 162°
2026-04-30 22:22 37.74115 -103.45131 34851 ft 496 kts 163°
2026-04-30 22:22 37.71121 -103.42952 35026 ft 496 kts 163°
2026-04-30 22:22 37.68130 -103.40779 35166 ft 496 kts 163°
2026-04-30 22:23 37.66147 -103.39341 35279 ft 496 kts 163°
2026-04-30 22:23 37.62177 -103.36466 35537 ft 495 kts 163°
2026-04-30 22:23 37.59199 -103.34309 35794 ft 493 kts 163°
2026-04-30 22:23 37.56218 -103.32154 35925 ft 494 kts 163°
2026-04-30 22:24 37.53227 -103.29999 36031 ft 495 kts 163°
2026-04-30 22:24 37.51245 -103.28571 36146 ft 495 kts 163°
2026-04-30 22:24 37.48264 -103.26423 36355 ft 493 kts 163°
2026-04-30 22:24 37.45289 -103.24280 36540 ft 493 kts 163°
2026-04-30 22:25 37.42309 -103.22136 36691 ft 493 kts 163°
2026-04-30 22:25 37.39336 -103.20000 36878 ft 492 kts 163°
2026-04-30 22:25 37.36368 -103.17869 37047 ft 492 kts 163°
2026-04-30 22:25 37.33384 -103.15732 37045 ft 495 kts 163°
2026-04-30 22:26 37.24333 -103.09266 37065 ft 503 kts 163°
2026-04-30 22:27 37.18207 -103.04890 37045 ft 507 kts 163°
2026-04-30 22:27 37.09003 -102.98321 37034 ft 508 kts 163°
2026-04-30 22:28 36.99814 -102.91788 37028 ft 508 kts 163°
2026-04-30 22:29 36.87545 -102.83093 37003 ft 505 kts 163°
2026-04-30 22:31 36.66200 -102.68054 37012 ft 502 kts 164°
2026-04-30 22:32 36.50985 -102.57395 37009 ft 502 kts 164°
2026-04-30 22:33 36.35794 -102.46797 37005 ft 502 kts 164°
2026-04-30 22:35 36.20540 -102.36204 37034 ft 503 kts 164°
2026-04-30 22:36 36.05259 -102.25639 37036 ft 503 kts 164°
2026-04-30 22:37 35.93043 -102.17228 37038 ft 503 kts 164°
2026-04-30 22:38 35.80849 -102.08861 37052 ft 503 kts 164°
2026-04-30 22:39 35.71668 -102.02582 37036 ft 503 kts 164°
2026-04-30 22:40 35.53722 -101.90326 36997 ft 477 kts 166°
2026-04-30 22:41 35.39163 -101.80485 37037 ft 480 kts 165°
2026-04-30 22:43 35.21528 -101.68564 37057 ft 486 kts 165°
2026-04-30 22:44 35.09716 -101.60399 37048 ft 489 kts 164°
2026-04-30 22:45 34.91906 -101.48140 37031 ft 491 kts 164°
2026-04-30 22:47 34.73997 -101.35885 37026 ft 493 kts 164°
2026-04-30 22:48 34.62025 -101.27732 36962 ft 498 kts 163°
2026-04-30 22:49 34.43641 -101.15256 37028 ft 510 kts 163°
2026-04-30 22:51 34.24989 -101.02658 37017 ft 512 kts 163°
2026-04-30 22:52 34.15665 -100.96386 37013 ft 510 kts 163°
2026-04-30 22:53 34.03305 -100.88093 37008 ft 508 kts 163°
2026-04-30 22:53 33.94044 -100.81899 37001 ft 507 kts 163°
2026-04-30 22:55 33.78612 -100.71611 37012 ft 507 kts 163°
2026-04-30 22:56 33.66236 -100.63402 37004 ft 509 kts 162°
2026-04-30 22:57 33.50692 -100.53123 37004 ft 514 kts 162°
2026-04-30 22:58 33.38118 -100.44837 36999 ft 517 kts 162°
2026-04-30 22:59 33.19160 -100.32395 36992 ft 521 kts 162°